| time (UTC) | temp F | wind direction | speed knots | gust knots | rain 1hr in | rain 24hr in | rain mn in | humidity % | barometer mb |
| 20260507095220 | 44 | 48 | 0.0 | 0.0 | 0.00 | 0.17 | 0.17 | 99 | 1000.8 |
| 20260507094718 | 44 | 32 | 0.9 | 0.9 | 0.00 | 0.17 | 0.17 | 99 | 1000.7 |
| 20260507094215 | 44 | 45 | 0.0 | 0.0 | 0.00 | 0.17 | 0.17 | 99 | 1000.1 |
| 20260507093711 | 44 | 46 | 0.0 | 0.0 | 0.00 | 0.17 | 0.17 | 99 | 1000.8 |
| 20260507093210 | 44 | 53 | 0.0 | 0.9 | 0.00 | 0.17 | 0.17 | 99 | 1000.6 |
| 20260507092707 | 44 | 54 | 0.0 | 0.0 | 0.00 | 0.17 | 0.17 | 99 | 1000.6 |
| 20260507092203 | 44 | 54 | 0.0 | 0.0 | 0.00 | 0.17 | 0.17 | 99 | 1000.6 |
| 20260507091700 | 44 | 53 | 0.0 | 0.0 | 0.00 | 0.17 | 0.17 | 99 | 1000.9 |
| 20260507091156 | 44 | 64 | 0.0 | 0.0 | 0.00 | 0.17 | 0.17 | 99 | 1000.9 |
| 20260507090652 | 44 | 64 | 0.0 | 0.0 | 0.00 | 0.17 | 0.17 | 99 | 1000.7 |
| 20260507090149 | 45 | 64 | 0.0 | 0.9 | 0.00 | 0.17 | 0.17 | 99 | 1000.6 |
| 20260507085646 | 45 | 64 | 0.0 | 0.0 | 0.00 | 0.17 | 0.17 | 99 | 1001.3 |
| 20260507085142 | 45 | 13 | 0.9 | 0.9 | 0.00 | 0.17 | 0.17 | 99 | 1001.2 |
| 20260507084639 | 45 | 39 | 0.9 | 0.9 | 0.00 | 0.17 | 0.17 | 99 | 1000.8 |
| 20260507084136 | 45 | 49 | 0.0 | 0.0 | 0.00 | 0.17 | 0.17 | 99 | 1000.8 |
| 20260507083633 | 45 | 57 | 0.0 | 0.0 | 0.00 | 0.17 | 0.17 | 99 | 1000.9 |
| 20260507083130 | 45 | 64 | 0.0 | 0.0 | 0.00 | 0.17 | 0.17 | 99 | 1000.9 |
| 20260507082625 | 45 | 50 | 0.9 | 0.9 | 0.00 | 0.17 | 0.17 | 99 | 1000.7 |
| 20260507082122 | 45 | 43 | 0.0 | 0.0 | 0.00 | 0.17 | 0.17 | 99 | 1000.5 |
| 20260507081619 | 45 | 42 | 0.0 | 0.0 | 0.00 | 0.17 | 0.17 | 99 | 1000.7 |
| 20260507081115 | 45 | 42 | 0.0 | 0.9 | 0.00 | 0.17 | 0.17 | 99 | 1000.8 |
| 20260507080612 | 45 | 42 | 0.0 | 0.9 | 0.00 | 0.17 | 0.17 | 99 | 1000.7 |
| 20260507080108 | 46 | 43 | 0.0 | 0.9 | 0.00 | 0.17 | 0.17 | 99 | 1000.6 |
| 20260507075603 | 46 | 16 | 0.9 | 0.9 | 0.00 | 0.17 | 0.17 | 99 | 1000.5 |
| 20260507075100 | 46 | 49 | 0.9 | 0.9 | 0.00 | 0.17 | 0.17 | 99 | 1000.6 |
| 20260507074556 | 46 | 62 | 0.0 | 0.9 | 0.00 | 0.17 | 0.17 | 99 | 1000.3 |
| 20260507074055 | 46 | 53 | 0.0 | 0.0 | 0.00 | 0.17 | 0.17 | 99 | 1000.6 |
| 20260507073550 | 46 | 350 | 1.7 | 1.7 | 0.00 | 0.17 | 0.17 | 99 | 1000.7 |
| 20260507073047 | 46 | 56 | 0.0 | 0.9 | 0.00 | 0.17 | 0.17 | 99 | 1000.7 |
| 20260507072545 | 46 | 57 | 0.0 | 0.0 | 0.00 | 0.17 | 0.17 | 99 | 1000.8 |
| 20260507072042 | 47 | 297 | 1.7 | 2.6 | 0.00 | 0.17 | 0.17 | 99 | 1000.7 |
| 20260507071539 | 47 | 46 | 0.0 | 0.0 | 0.00 | 0.17 | 0.17 | 99 | 1000.5 |
| 20260507071036 | 47 | 66 | 0.0 | 0.0 | 0.00 | 0.17 | 0.17 | 99 | 1000.2 |
| 20260507070533 | 47 | 78 | 0.0 | 0.0 | 0.00 | 0.17 | 0.17 | 99 | 1000.1 |
| 20260507070030 | 47 | 48 | 0.0 | 0.0 | 0.00 | 0.17 | 0.17 | 99 | 1000.1 |
| 20260507065526 | 47 | 48 | 0.0 | 0.0 | 0.00 | 0.17 | 0.17 | 99 | 1000.1 |
| 20260507065023 | 47 | 49 | 0.0 | 0.0 | 0.00 | 0.17 | 0.17 | 99 | 1000.1 |
| 20260507064521 | 47 | 45 | 0.9 | 0.9 | 0.00 | 0.17 | 0.17 | 99 | 1000.1 |
| 20260507064020 | 47 | 55 | 0.0 | 0.0 | 0.00 | 0.17 | 0.17 | 99 | 999.9 |
| 20260507063516 | 47 | 52 | 0.0 | 0.9 | 0.00 | 0.17 | 0.17 | 99 | 999.9 |
| 20260507063014 | 47 | 70 | 0.0 | 0.0 | 0.00 | 0.17 | 0.17 | 99 | 999.6 |
| 20260507062510 | 47 | 72 | 0.0 | 0.0 | 0.00 | 0.17 | 0.17 | 99 | 999.7 |
| 20260507062008 | 48 | 48 | 0.0 | 0.0 | 0.00 | 0.17 | 0.17 | 99 | 999.6 |
| 20260507061505 | 48 | 48 | 0.0 | 0.0 | 0.00 | 0.17 | 0.17 | 99 | 1000.0 |
| 20260507061003 | 48 | 80 | 0.0 | 0.0 | 0.00 | 0.17 | 0.17 | 99 | 999.9 |
| 20260507060500 | 48 | 52 | 0.0 | 0.0 | 0.00 | 0.17 | 0.17 | 99 | 999.5 |
| 20260507055956 | 48 | 45 | 0.0 | 0.0 | 0.00 | 0.17 | 0.17 | 99 | 999.5 |
| 20260507055452 | 48 | 45 | 0.0 | 0.0 | 0.00 | 0.17 | 0.17 | 99 | 999.6 |
| 20260507054949 | 48 | 45 | 0.0 | 0.9 | 0.00 | 0.17 | 0.17 | 99 | 999.6 |
| 20260507054445 | 48 | 48 | 0.0 | 0.9 | 0.00 | 0.17 | 0.17 | 99 | 999.3 |
| 20260507053942 | 48 | 74 | 0.9 | 0.9 | 0.00 | 0.17 | 0.17 | 99 | 999.4 |
| 20260507053440 | 48 | 62 | 0.0 | 0.0 | 0.00 | 0.17 | 0.17 | 99 | 999.6 |
| 20260507052938 | 48 | 49 | 0.9 | 0.9 | 0.00 | 0.17 | 0.17 | 99 | 999.6 |
| 20260507052436 | 48 | 47 | 1.7 | 2.6 | 0.00 | 0.17 | 0.17 | 99 | 999.5 |
| 20260507051933 | 48 | 70 | 1.7 | 1.7 | 0.00 | 0.17 | 0.17 | 99 | 999.5 |
| 20260507051430 | 49 | 88 | 0.9 | 0.9 | 0.00 | 0.17 | 0.17 | 99 | 999.8 |
| 20260507050927 | 49 | 64 | 0.9 | 0.9 | 0.00 | 0.17 | 0.17 | 99 | 999.8 |
| 20260507050423 | 49 | 76 | 0.9 | 0.9 | 0.00 | 0.17 | 0.17 | 99 | 999.6 |
| 20260507045920 | 49 | 60 | 0.0 | 0.9 | 0.00 | 0.17 | 0.17 | 99 | 1000.0 |
| 20260507045417 | 49 | 73 | 0.0 | 0.9 | 0.05 | 0.17 | 0.17 | 99 | 999.9 |
| 20260507044914 | 50 | 59 | 0.0 | 0.0 | 0.12 | 0.17 | 0.17 | 99 | 999.8 |
| 20260507044411 | 50 | 24 | 1.7 | 3.5 | 0.12 | 0.16 | 0.16 | 99 | 999.7 |
| 20260507043907 | 50 | 81 | 0.9 | 0.9 | 0.12 | 0.15 | 0.15 | 99 | 999.5 |
| 20260507043403 | 50 | 56 | 0.0 | 0.0 | 0.26 | 0.14 | 0.14 | 99 | 1000.0 |
| 20260507042859 | 50 | 68 | 0.9 | 0.9 | 0.47 | 0.13 | 0.13 | 99 | 1000.0 |
| 20260507042355 | 51 | 47 | 1.7 | 2.6 | 0.35 | 0.10 | 0.10 | 99 | 1000.0 |
| 20260507041846 | 51 | 52 | 0.9 | 0.9 | 0.07 | 0.05 | 0.05 | 99 | 1000.0 |
| 20260507041343 | 52 | 91 | 1.7 | 1.7 | 0.00 | 0.04 | 0.04 | 99 | 999.6 |
| 20260507040841 | 52 | 63 | 1.7 | 1.7 | 0.05 | 0.04 | 0.04 | 99 | 999.3 |
| 20260507040337 | 52 | 56 | 0.0 | 0.0 | 0.12 | 0.04 | 0.04 | 99 | 999.0 |
| 20260507035833 | 53 | 62 | 0.0 | 0.0 | 0.07 | 0.03 | 0.03 | 99 | 999.2 |
| 20260507035328 | 53 | 69 | 0.0 | 0.9 | 0.05 | 0.02 | 0.02 | 99 | 998.9 |
| 20260507034826 | 53 | 61 | 0.0 | 0.0 | 0.05 | 0.02 | 0.02 | 99 | 999.0 |
| 20260507034322 | 53 | 61 | 0.0 | 0.0 | 0.00 | 0.01 | 0.01 | 99 | 999.1 |
| 20260507033821 | 53 | 30 | 0.9 | 0.9 | 0.00 | 0.01 | 0.01 | 99 | 999.2 |
| 20260507033318 | 53 | 39 | 0.0 | 0.0 | 0.00 | 0.01 | 0.01 | 99 | 999.1 |
| 20260507032815 | 53 | 39 | 0.0 | 0.0 | 0.07 | 0.01 | 0.01 | 99 | 998.9 |
| 20260507032311 | 53 | 48 | 0.0 | 0.0 | 0.07 | 0.01 | 0.01 | 99 | 999.0 |
| 20260507031808 | 53 | 62 | 0.0 | 0.0 | 0.07 | 0.01 | 0.01 | 99 | 998.8 |
| 20260507031304 | 53 | 99 | 0.0 | 0.0 | 0.05 | 0.00 | 0.00 | 99 | 998.7 |
| 20260507030800 | 52 | 62 | 0.0 | 0.0 | 0.05 | 0.00 | 0.00 | 99 | 998.6 |
| 20260507030258 | 52 | 62 | 0.0 | 0.0 | 0.00 | 0.45 | 0.45 | 99 | 998.9 |
| 20260507025755 | 52 | 63 | 0.0 | 0.0 | 0.00 | 0.45 | 0.45 | 99 | 998.8 |
| 20260507025253 | 52 | 63 | 0.0 | 0.0 | 0.00 | 0.45 | 0.45 | 99 | 998.7 |
| 20260507024750 | 52 | 60 | 0.0 | 0.0 | 0.00 | 0.45 | 0.45 | 99 | 998.7 |
| 20260507024247 | 52 | 37 | 0.9 | 0.9 | 0.00 | 0.45 | 0.45 | 99 | 998.7 |
| 20260507023743 | 52 | 9 | 0.9 | 0.9 | 0.00 | 0.45 | 0.45 | 99 | 998.6 |
| 20260507023240 | 52 | 83 | 0.0 | 0.9 | 0.00 | 0.45 | 0.45 | 99 | 998.6 |
| 20260507022737 | 52 | 223 | 1.7 | 2.6 | 0.00 | 0.45 | 0.45 | 99 | 998.5 |
| 20260507022233 | 52 | 17 | 1.7 | 1.7 | 0.00 | 0.45 | 0.45 | 99 | 998.5 |
| 20260507021730 | 52 | 100 | 0.9 | 0.9 | 0.00 | 0.45 | 0.45 | 99 | 998.7 |
| 20260507021226 | 52 | 152 | 0.9 | 0.9 | 0.00 | 0.45 | 0.45 | 99 | 998.6 |
| 20260507020724 | 52 | 301 | 1.7 | 1.7 | 0.00 | 0.45 | 0.45 | 99 | 998.5 |
| 20260507020220 | 52 | 83 | 1.7 | 1.7 | 0.00 | 0.45 | 0.45 | 99 | 998.6 |
| 20260507015718 | 52 | 75 | 0.9 | 1.7 | 0.00 | 0.45 | 0.45 | 99 | 998.7 |
| 20260507015215 | 52 | 36 | 0.9 | 0.9 | 0.00 | 0.45 | 0.45 | 99 | 998.8 |
| 20260507014706 | 52 | 254 | 1.7 | 1.7 | 0.07 | 0.45 | 0.45 | 99 | 998.9 |
| 20260507014202 | 52 | 240 | 1.7 | 1.7 | 0.07 | 0.45 | 0.45 | 99 | 998.9 |
| 20260507013659 | 52 | 70 | 0.9 | 0.9 | 0.00 | 0.44 | 0.44 | 99 | 999.0 |
| 20260507013156 | 52 | 173 | 2.6 | 3.5 | 0.07 | 0.44 | 0.44 | 99 | 999.0 |
| 20260507012654 | 52 | 228 | 3.5 | 5.2 | 0.07 | 0.44 | 0.44 | 99 | 998.8 |
| 20260507012149 | 53 | 95 | 1.7 | 5.2 | 0.00 | 0.43 | 0.43 | 99 | 999.0 |
| 20260507011647 | 53 | 226 | 1.7 | 1.7 | 0.00 | 0.43 | 0.43 | 99 | 999.0 |
| 20260507011143 | 53 | 308 | 2.6 | 2.6 | 0.00 | 0.43 | 0.43 | 99 | 998.9 |
| 20260507010638 | 53 | 190 | 4.3 | 6.1 | 0.00 | 0.43 | 0.43 | 99 | 999.2 |
| 20260507010134 | 53 | 159 | 2.6 | 2.6 | 0.00 | 0.43 | 0.43 | 99 | 999.0 |
| 20260507005632 | 53 | 281 | 2.6 | 2.6 | 0.00 | 0.43 | 0.43 | 99 | 999.2 |
| 20260507005127 | 53 | 262 | 1.7 | 1.7 | 0.00 | 0.43 | 0.43 | 99 | 999.2 |
| 20260507004625 | 53 | 210 | 2.6 | 2.6 | 0.00 | 0.43 | 0.43 | 99 | 999.3 |
| 20260507004122 | 53 | 266 | 1.7 | 2.6 | 0.00 | 0.43 | 0.43 | 99 | 999.1 |
| 20260507003618 | 53 | 242 | 1.7 | 2.6 | 0.00 | 0.43 | 0.43 | 99 | 999.2 |
| 20260507003113 | 53 | 292 | 3.5 | 5.2 | 0.00 | 0.43 | 0.43 | 99 | 999.5 |
| 20260507002610 | 53 | 182 | 4.3 | 7.8 | 0.00 | 0.43 | 0.43 | 99 | 999.5 |
| 20260507002106 | 53 | 211 | 1.7 | 2.6 | 0.00 | 0.43 | 0.43 | 99 | 999.7 |
| 20260507001603 | 53 | 197 | 0.9 | 1.7 | 0.00 | 0.43 | 0.43 | 99 | 999.4 |
| 20260507001100 | 53 | 249 | 2.6 | 2.6 | 0.00 | 0.43 | 0.43 | 99 | 999.2 |
| 20260507000556 | 53 | 172 | 0.0 | 0.9 | 0.00 | 0.43 | 0.43 | 99 | 999.2 |
| 20260507000052 | 53 | 303 | 0.0 | 0.9 | 0.00 | 0.43 | 0.43 | 99 | 999.2 |
| 20260506235550 | 53 | 21 | 0.0 | 0.9 | 0.00 | 0.43 | 0.43 | 99 | 999.2 |
| 20260506235044 | 53 | 278 | 1.7 | 2.6 | 0.00 | 0.43 | 0.43 | 99 | 999.2 |
| 20260506234542 | 54 | 247 | 1.7 | 1.7 | 0.00 | 0.43 | 0.43 | 99 | 999.4 |
| 20260506234039 | 54 | 188 | 2.6 | 3.5 | 0.00 | 0.43 | 0.43 | 99 | 999.1 |
| 20260506233536 | 54 | 259 | 2.6 | 2.6 | 0.00 | 0.43 | 0.43 | 99 | 999.3 |
| 20260506233033 | 54 | 245 | 1.7 | 2.6 | 0.00 | 0.43 | 0.43 | 99 | 999.4 |
| 20260506232529 | 54 | 44 | 2.6 | 3.5 | 0.00 | 0.43 | 0.43 | 99 | 999.4 |
| 20260506232025 | 54 | 188 | 2.6 | 3.5 | 0.00 | 0.43 | 0.43 | 99 | 999.4 |
| 20260506231522 | 54 | 267 | 2.6 | 2.6 | 0.00 | 0.43 | 0.43 | 99 | 999.4 |
| 20260506231015 | 54 | 207 | 1.7 | 1.7 | 0.00 | 0.43 | 0.43 | 99 | 999.5 |
| 20260506230510 | 54 | 273 | 2.6 | 3.5 | 0.00 | 0.43 | 0.43 | 99 | 999.4 |
| 20260506230008 | 54 | 272 | 2.6 | 3.5 | 0.00 | 0.43 | 0.43 | 99 | 999.6 |
| 20260506225505 | 54 | 279 | 1.7 | 2.6 | 0.00 | 0.43 | 0.43 | 99 | 999.8 |
| 20260506225001 | 54 | 198 | 1.7 | 1.7 | 0.00 | 0.43 | 0.43 | 99 | 999.8 |
| 20260506224458 | 54 | 60 | 0.0 | 0.0 | 0.00 | 0.43 | 0.43 | 99 | 999.6 |
| 20260506223954 | 54 | 175 | 1.7 | 2.6 | 0.00 | 0.43 | 0.43 | 99 | 999.8 |
| 20260506223450 | 54 | 260 | 3.5 | 3.5 | 0.00 | 0.43 | 0.43 | 99 | 999.7 |
| 20260506222948 | 54 | 335 | 1.7 | 1.7 | 0.00 | 0.43 | 0.43 | 99 | 999.8 |
| 20260506222444 | 54 | 282 | 1.7 | 1.7 | 0.00 | 0.43 | 0.43 | 99 | 999.8 |
| 20260506221941 | 54 | 286 | 1.7 | 1.7 | 0.00 | 0.43 | 0.43 | 99 | 1000.3 |
| 20260506221438 | 54 | 244 | 1.7 | 1.7 | 0.00 | 0.43 | 0.43 | 99 | 1000.1 |
| 20260506220936 | 54 | 212 | 1.7 | 2.6 | 0.05 | 0.43 | 0.43 | 99 | 1000.1 |
| 20260506220431 | 54 | 331 | 2.6 | 2.6 | 0.12 | 0.43 | 0.43 | 99 | 1000.3 |
| 20260506215928 | 54 | 240 | 2.6 | 3.5 | 0.19 | 0.42 | 0.42 | 99 | 1000.3 |
| 20260506215424 | 54 | 300 | 1.7 | 1.7 | 0.17 | 0.41 | 0.41 | 99 | 1000.2 |
| 20260506214920 | 54 | 177 | 1.7 | 1.7 | 0.05 | 0.39 | 0.39 | 99 | 1000.3 |
| 20260506214417 | 54 | 276 | 0.9 | 0.9 | 0.07 | 0.38 | 0.38 | 99 | 1000.3 |
| 20260506213914 | 54 | 269 | 1.7 | 1.7 | 0.07 | 0.38 | 0.38 | 99 | 1000.3 |
| 20260506213412 | 54 | 239 | 3.5 | 7.8 | 0.07 | 0.38 | 0.38 | 99 | 1000.2 |
| 20260506212909 | 54 | 255 | 2.6 | 2.6 | 0.00 | 0.37 | 0.37 | 99 | 1000.4 |
| 20260506212405 | 54 | 182 | 4.3 | 5.2 | 0.00 | 0.37 | 0.37 | 99 | 1000.5 |
| 20260506211900 | 54 | 302 | 1.7 | 1.7 | 0.00 | 0.37 | 0.37 | 99 | 1000.4 |
| 20260506211356 | 54 | 255 | 3.5 | 6.1 | 0.05 | 0.37 | 0.37 | 99 | 1000.5 |
| 20260506210848 | 54 | 283 | 6.1 | 7.8 | 0.05 | 0.37 | 0.37 | 99 | 1000.6 |
| 20260506210345 | 54 | 47 | 0.0 | 0.9 | 0.12 | 0.37 | 0.37 | 99 | 1000.2 |
| 20260506205842 | 54 | 226 | 0.9 | 1.7 | 0.07 | 0.36 | 0.36 | 99 | 1000.7 |
| 20260506205338 | 54 | 252 | 2.6 | 2.6 | 0.05 | 0.35 | 0.35 | 99 | 1000.2 |
| 20260506204834 | 54 | 353 | 0.9 | 1.7 | 0.12 | 0.35 | 0.35 | 99 | 1000.3 |
| 20260506204332 | 54 | 220 | 1.7 | 1.7 | 0.07 | 0.34 | 0.34 | 99 | 1000.7 |
| 20260506203830 | 54 | 233 | 0.9 | 1.7 | 0.05 | 0.33 | 0.33 | 99 | 1000.7 |
| 20260506203327 | 54 | 167 | 0.9 | 1.7 | 0.05 | 0.33 | 0.33 | 99 | 1000.7 |
| 20260506202823 | 54 | 232 | 1.7 | 2.6 | 0.07 | 0.32 | 0.32 | 99 | 1000.6 |
| 20260506202321 | 54 | 64 | 0.0 | 0.0 | 0.14 | 0.32 | 0.32 | 99 | 1000.4 |
| 20260506201817 | 54 | 273 | 2.6 | 3.5 | 0.14 | 0.32 | 0.32 | 99 | 1000.6 |
| 20260506201315 | 54 | 305 | 1.7 | 2.6 | 0.12 | 0.31 | 0.31 | 99 | 1000.8 |
| 20260506200811 | 54 | 242 | 1.7 | 2.6 | 0.12 | 0.30 | 0.30 | 99 | 1000.7 |
| 20260506200307 | 54 | 268 | 2.6 | 2.6 | 0.07 | 0.29 | 0.29 | 99 | 1001.0 |
| 20260506195803 | 54 | 229 | 2.6 | 2.6 | 0.00 | 0.28 | 0.28 | 99 | 1000.8 |
| 20260506195300 | 54 | 14 | 1.7 | 1.7 | 0.05 | 0.28 | 0.28 | 99 | 1000.9 |
| 20260506194757 | 54 | 287 | 1.7 | 2.6 | 0.05 | 0.28 | 0.28 | 99 | 1000.9 |
| 20260506194254 | 54 | 31 | 0.9 | 1.7 | 0.07 | 0.27 | 0.27 | 99 | 1000.9 |
| 20260506193752 | 54 | 152 | 0.9 | 0.9 | 0.12 | 0.27 | 0.27 | 99 | 1000.9 |
| 20260506193248 | 54 | 351 | 1.7 | 1.7 | 0.12 | 0.26 | 0.26 | 99 | 1000.9 |
| 20260506192744 | 54 | 98 | 0.9 | 0.9 | 0.54 | 0.26 | 0.26 | 99 | 1001.4 |
| 20260506192242 | 54 | 55 | 2.6 | 2.6 | 0.71 | 0.17 | 0.17 | 99 | 1001.5 |
| 20260506191738 | 54 | 55 | 2.6 | 2.6 | 0.71 | 0.17 | 0.17 | 99 | 1001.5 |
| 20260506191235 | 54 | 106 | 0.0 | 0.9 | 0.38 | 0.10 | 0.10 | 99 | 1001.4 |
| 20260506190732 | 54 | 75 | 1.7 | 3.5 | 0.24 | 0.05 | 0.05 | 98 | 1001.7 |
| 20260506190228 | 54 | 18 | 1.7 | 1.7 | 0.17 | 0.04 | 0.04 | 97 | 1001.2 |
| 20260506185726 | 55 | 189 | 1.7 | 2.6 | 0.12 | 0.02 | 0.02 | 96 | 1001.4 |
| 20260506185222 | 55 | 264 | 2.6 | 2.6 | 0.07 | 0.01 | 0.01 | 95 | 1001.1 |
| 20260506184719 | 56 | 193 | 2.6 | 3.5 | 0.00 | 0.00 | 0.00 | 94 | 1001.3 |
| 20260506184217 | 56 | 244 | 1.7 | 2.6 | 0.00 | 0.00 | 0.00 | 92 | 1000.9 |
| 20260506183713 | 57 | 329 | 1.7 | 1.7 | 0.00 | 0.00 | 0.00 | 91 | 1001.1 |
| 20260506183209 | 57 | 288 | 1.7 | 1.7 | 0.00 | 0.00 | 0.00 | 90 | 1001.1 |
| 20260506182706 | 57 | 261 | 5.2 | 6.1 | 0.00 | 0.00 | 0.00 | 88 | 1001.1 |
| 20260506182203 | 58 | 268 | 0.9 | 1.7 | 0.00 | 0.00 | 0.00 | 88 | 1000.9 |
| 20260506181701 | 58 | 291 | 3.5 | 5.2 | 0.00 | 0.00 | 0.00 | 87 | 1001.2 |
| 20260506181158 | 58 | 52 | 0.9 | 0.9 | 0.00 | 0.00 | 0.00 | 87 | 1001.3 |
| 20260506180655 | 58 | 31 | 0.9 | 0.9 | 0.00 | 0.00 | 0.00 | 86 | 1001.2 |
| 20260506180151 | 59 | 264 | 1.7 | 2.6 | 0.00 | 0.00 | 0.00 | 86 | 1001.4 |
| 20260506175647 | 59 | 268 | 3.5 | 3.5 | 0.00 | 0.00 | 0.00 | 86 | 1001.2 |
| 20260506175145 | 59 | 2 | 0.0 | 0.0 | 0.00 | 0.00 | 0.00 | 86 | 1001.2 |
| 20260506174638 | 59 | 68 | 1.7 | 1.7 | 0.00 | 0.00 | 0.00 | 86 | 1001.2 |
| 20260506174134 | 59 | 340 | 1.7 | 1.7 | 0.00 | 0.00 | 0.00 | 86 | 1001.5 |
| 20260506173631 | 59 | 112 | 1.7 | 1.7 | 0.00 | 0.00 | 0.00 | 86 | 1001.5 |
| 20260506173128 | 59 | 210 | 2.6 | 2.6 | 0.00 | 0.00 | 0.00 | 86 | 1001.6 |
| 20260506172626 | 59 | 298 | 1.7 | 1.7 | 0.00 | 0.00 | 0.00 | 86 | 1001.8 |
| 20260506172121 | 60 | 270 | 2.6 | 2.6 | 0.00 | 0.00 | 0.00 | 86 | 1001.9 |
| 20260506171619 | 60 | 306 | 0.9 | 1.7 | 0.00 | 0.00 | 0.00 | 85 | 1001.9 |
| 20260506171116 | 60 | 223 | 1.7 | 1.7 | 0.00 | 0.00 | 0.00 | 85 | 1002.0 |
| 20260506170613 | 60 | 252 | 3.5 | 5.2 | 0.00 | 0.00 | 0.00 | 85 | 1001.9 |
| 20260506170105 | 60 | 240 | 1.7 | 1.7 | 0.00 | 0.00 | 0.00 | 85 | 1002.2 |
| 20260506165604 | 60 | 88 | 0.9 | 0.9 | 0.00 | 0.00 | 0.00 | 85 | 1002.3 |
| 20260506165059 | 60 | 89 | 0.9 | 0.9 | 0.00 | 0.00 | 0.00 | 85 | 1002.5 |
| 20260506164557 | 60 | 280 | 1.7 | 1.7 | 0.00 | 0.00 | 0.00 | 85 | 1002.6 |
| 20260506164054 | 60 | 219 | 2.6 | 2.6 | 0.00 | 0.00 | 0.00 | 85 | 1002.4 |
| 20260506163549 | 60 | 282 | 2.6 | 2.6 | 0.00 | 0.00 | 0.00 | 85 | 1002.8 |
| 20260506163045 | 60 | 162 | 0.9 | 0.9 | 0.00 | 0.00 | 0.00 | 85 | 1002.7 |
| 20260506162541 | 60 | 106 | 1.7 | 2.6 | 0.00 | 0.00 | 0.00 | 85 | 1002.9 |
| 20260506162033 | 60 | 61 | 0.9 | 0.9 | 0.00 | 0.00 | 0.00 | 86 | 1003.0 |
| 20260506161530 | 60 | 94 | 0.9 | 1.7 | 0.00 | 0.00 | 0.00 | 85 | 1003.1 |
| 20260506161022 | 60 | 53 | 0.0 | 0.0 | 0.00 | 0.00 | 0.00 | 85 | 1002.9 |
| 20260506160520 | 60 | 260 | 3.5 | 5.2 | 0.00 | 0.00 | 0.00 | 85 | 1003.3 |
| 20260506160016 | 60 | 142 | 0.9 | 1.7 | 0.00 | 0.00 | 0.00 | 85 | 1003.4 |
| 20260506155514 | 59 | 154 | 0.9 | 0.9 | 0.00 | 0.00 | 0.00 | 86 | 1003.5 |
| 20260506153646 | 60 | 194 | 1.7 | 1.7 | 0.00 | 0.00 | 0.00 | 85 | 1003.6 |
| 20260506153143 | 60 | 230 | 1.7 | 1.7 | 0.00 | 0.00 | 0.00 | 85 | 1003.6 |
| 20260506152640 | 60 | 144 | 0.9 | 1.7 | 0.00 | 0.00 | 0.00 | 85 | 1003.5 |
| 20260506152138 | 60 | 107 | 0.9 | 1.7 | 0.00 | 0.00 | 0.00 | 84 | 1003.3 |
| 20260506151636 | 60 | 309 | 2.6 | 2.6 | 0.00 | 0.00 | 0.00 | 84 | 1003.4 |
| 20260506151133 | 60 | 347 | 1.7 | 1.7 | 0.00 | 0.00 | 0.00 | 84 | 1003.3 |
| 20260506150630 | 60 | 127 | 1.7 | 2.6 | 0.00 | 0.00 | 0.00 | 84 | 1003.4 |
| 20260506150127 | 60 | 104 | 0.9 | 0.9 | 0.00 | 0.00 | 0.00 | 84 | 1003.4 |
| 20260506145623 | 59 | 137 | 1.7 | 1.7 | 0.00 | 0.00 | 0.00 | 86 | 1003.2 |
| 20260506145120 | 59 | 69 | 0.0 | 0.0 | 0.00 | 0.00 | 0.00 | 86 | 1003.2 |
| 20260506144618 | 59 | 57 | 1.7 | 1.7 | 0.00 | 0.00 | 0.00 | 85 | 1002.8 |
| 20260506144114 | 60 | 103 | 3.5 | 3.5 | 0.00 | 0.00 | 0.00 | 84 | 1003.0 |
| 20260506143612 | 60 | 79 | 0.9 | 0.9 | 0.00 | 0.00 | 0.00 | 85 | 1002.9 |
| 20260506143110 | 60 | 355 | 1.7 | 1.7 | 0.00 | 0.00 | 0.00 | 84 | 1002.9 |
| 20260506142608 | 60 | 83 | 1.7 | 1.7 | 0.00 | 0.00 | 0.00 | 85 | 1003.1 |
| 20260506142106 | 60 | 78 | 0.0 | 0.0 | 0.00 | 0.00 | 0.00 | 83 | 1003.1 |
| 20260506141603 | 60 | 24 | 1.7 | 2.6 | 0.00 | 0.00 | 0.00 | 84 | 1003.4 |
| 20260506141101 | 60 | 73 | 1.7 | 1.7 | 0.00 | 0.00 | 0.00 | 84 | 1003.4 |
| 20260506140558 | 60 | 110 | 0.0 | 0.9 | 0.00 | 0.00 | 0.00 | 84 | 1003.5 |
| 20260506140056 | 59 | 96 | 0.9 | 0.9 | 0.00 | 0.00 | 0.00 | 84 | 1003.5 |
| 20260506135552 | 59 | 142 | 0.9 | 1.7 | 0.00 | 0.00 | 0.00 | 85 | 1003.7 |
| 20260506135048 | 59 | 331 | 0.9 | 0.9 | 0.00 | 0.00 | 0.00 | 85 | 1004.0 |
| 20260506134545 | 59 | 165 | 0.9 | 0.9 | 0.00 | 0.00 | 0.00 | 85 | 1003.8 |
| 20260506134041 | 59 | 87 | 0.9 | 0.9 | 0.00 | 0.00 | 0.00 | 86 | 1003.7 |
| 20260506133538 | 59 | 59 | 0.0 | 0.9 | 0.00 | 0.00 | 0.00 | 85 | 1003.6 |
| 20260506133035 | 59 | 328 | 2.6 | 2.6 | 0.00 | 0.00 | 0.00 | 84 | 1003.5 |
| 20260506132533 | 59 | 50 | 0.9 | 0.9 | 0.00 | 0.00 | 0.00 | 84 | 1003.5 |
| 20260506132030 | 58 | 97 | 0.0 | 0.0 | 0.00 | 0.00 | 0.00 | 86 | 1003.6 |
| 20260506131527 | 58 | 319 | 1.7 | 1.7 | 0.00 | 0.00 | 0.00 | 85 | 1003.6 |
| 20260506131023 | 58 | 57 | 0.0 | 0.9 | 0.00 | 0.00 | 0.00 | 86 | 1003.4 |
| 20260506130520 | 58 | 273 | 3.5 | 3.5 | 0.00 | 0.00 | 0.00 | 86 | 1003.5 |
| 20260506130018 | 58 | 254 | 0.9 | 1.7 | 0.00 | 0.00 | 0.00 | 86 | 1003.6 |
| 20260506125516 | 57 | 25 | 0.9 | 0.9 | 0.00 | 0.00 | 0.00 | 86 | 1003.6 |
| 20260506125013 | 57 | 90 | 0.9 | 0.9 | 0.00 | 0.00 | 0.00 | 85 | 1003.7 |
| 20260506124511 | 57 | 34 | 0.9 | 0.9 | 0.00 | 0.00 | 0.00 | 87 | 1003.5 |
| 20260506124009 | 57 | 85 | 0.0 | 0.0 | 0.00 | 0.00 | 0.00 | 88 | 1003.6 |
| 20260506123506 | 57 | 38 | 0.9 | 0.9 | 0.00 | 0.00 | 0.00 | 87 | 1003.7 |
| 20260506123004 | 56 | 71 | 0.0 | 0.0 | 0.00 | 0.00 | 0.00 | 86 | 1003.5 |
| 20260506122501 | 56 | 80 | 0.9 | 0.9 | 0.00 | 0.00 | 0.00 | 88 | 1003.8 |
| 20260506121959 | 56 | 81 | 0.9 | 0.9 | 0.00 | 0.00 | 0.00 | 88 | 1003.8 |
| 20260506121456 | 55 | 85 | 0.0 | 0.0 | 0.00 | 0.00 | 0.00 | 89 | 1003.9 |
| 20260506120952 | 55 | 62 | 0.0 | 0.9 | 0.00 | 0.00 | 0.00 | 88 | 1004.1 |
| 20260506120450 | 55 | 74 | 0.0 | 0.0 | 0.00 | 0.00 | 0.00 | 89 | 1003.9 |
| 20260506115947 | 55 | 65 | 0.0 | 0.9 | 0.00 | 0.00 | 0.00 | 89 | 1004.1 |
| 20260506115445 | 55 | 95 | 0.9 | 0.9 | 0.00 | 0.00 | 0.00 | 88 | 1004.1 |
| 20260506114943 | 55 | 84 | 0.0 | 0.9 | 0.00 | 0.00 | 0.00 | 90 | 1004.3 |
| 20260506114440 | 54 | 84 | 0.0 | 0.0 | 0.00 | 0.00 | 0.00 | 89 | 1004.2 |
| 20260506113939 | 54 | 77 | 0.0 | 0.9 | 0.00 | 0.00 | 0.00 | 89 | 1004.4 |
| 20260506113436 | 54 | 78 | 0.0 | 0.0 | 0.00 | 0.00 | 0.00 | 89 | 1004.5 |
| 20260506112932 | 54 | 102 | 0.0 | 0.9 | 0.00 | 0.00 | 0.00 | 89 | 1004.5 |
| 20260506112430 | 54 | 74 | 0.9 | 0.9 | 0.00 | 0.00 | 0.00 | 90 | 1004.3 |
| 20260506111927 | 54 | 78 | 0.9 | 0.9 | 0.00 | 0.00 | 0.00 | 89 | 1004.7 |
| 20260506111425 | 54 | 77 | 0.0 | 0.0 | 0.00 | 0.00 | 0.00 | 90 | 1004.4 |
| 20260506110922 | 54 | 77 | 0.0 | 0.0 | 0.00 | 0.00 | 0.00 | 90 | 1004.7 |
| 20260506110420 | 53 | 78 | 0.0 | 0.0 | 0.00 | 0.00 | 0.00 | 90 | 1004.3 |
| 20260506105916 | 53 | 61 | 0.0 | 0.0 | 0.00 | 0.00 | 0.00 | 90 | 1004.5 |
| 20260506105413 | 53 | 72 | 0.0 | 0.0 | 0.00 | 0.00 | 0.00 | 91 | 1004.2 |
| 20260506104910 | 53 | 72 | 0.0 | 0.0 | 0.00 | 0.00 | 0.00 | 92 | 1004.2 |
| 20260506104408 | 53 | 72 | 0.0 | 0.0 | 0.00 | 0.00 | 0.00 | 91 | 1004.2 |
| 20260506103906 | 53 | 72 | 0.0 | 0.0 | 0.00 | 0.00 | 0.00 | 91 | 1004.2 |
| 20260506103403 | 52 | 72 | 0.0 | 0.0 | 0.00 | 0.00 | 0.00 | 92 | 1004.3 |
| 20260506102900 | 52 | 72 | 0.0 | 0.0 | 0.00 | 0.00 | 0.00 | 91 | 1004.1 |
| 20260506102358 | 52 | 73 | 0.9 | 0.9 | 0.00 | 0.00 | 0.00 | 92 | 1004.0 |
| 20260506101855 | 52 | 77 | 0.0 | 0.9 | 0.00 | 0.00 | 0.00 | 92 | 1003.9 |
| 20260506101351 | 52 | 81 | 1.7 | 1.7 | 0.00 | 0.00 | 0.00 | 92 | 1004.1 |
| 20260506100849 | 52 | 74 | 0.0 | 0.9 | 0.00 | 0.00 | 0.00 | 92 | 1004.0 |
| 20260506100347 | 52 | 86 | 0.0 | 0.9 | 0.00 | 0.00 | 0.00 | 91 | 1004.1 |
| 20260506095845 | 52 | 64 | 0.0 | 0.0 | 0.00 | 0.00 | 0.00 | 91 | 1004.2 |